This is the latest recevied weather packets stored in our database for station/object K0APR. If no packets are shown the sender has not sent any weather packets the latest 10 day(s).
| Time | Temp. | Humidity | Pressure | Rain* | Wind** | Luminosity | Snow |
|---|---|---|---|---|---|---|---|
| 1777754478 | 20.56° C | 31% | 1013 hPa | 0 mm | - | 320 W/m² | - |
| 1777754175 | 20° C | 31% | 1013 hPa | 0 mm | - | 362 W/m² | - |
| 1777753872 | 20.56° C | 32% | 1013.3 hPa | 0 mm | - | 414 W/m² | - |
| 1777753567 | 20° C | 31% | 1013 hPa | 0 mm | - | 452 W/m² | - |
| 1777753266 | 20° C | 32% | 1013 hPa | 0 mm | - | 359 W/m² | - |
| 1777752961 | 20.56° C | 31% | 1013.3 hPa | 0 mm | - | 286 W/m² | - |
| 1777752658 | 21.11° C | 30% | 1013.3 hPa | 0 mm | - | 266 W/m² | - |
| 1777752354 | 20° C | 33% | 1013.3 hPa | 0 mm | - | 310 W/m² | - |
| 1777752052 | 20.56° C | 32% | 1013.3 hPa | 0 mm | - | 412 W/m² | - |
| 1777751750 | 19.44° C | 30% | 1013.7 hPa | 0 mm | - | 524 W/m² | - |
| 1777751445 | 19.44° C | 32% | 1013.7 hPa | 0 mm | - | 514 W/m² | - |
| 1777751142 | 20° C | 31% | 1013.3 hPa | 0 mm | - | 524 W/m² | - |
| 1777750838 | 20° C | 31% | 1014 hPa | 0 mm | - | 377 W/m² | - |
| 1777750536 | 19.44° C | 33% | 1013.7 hPa | 0 mm | - | 566 W/m² | - |
| 1777750232 | 20° C | 32% | 1014 hPa | 0 mm | - | 599 W/m² | - |
| 1777749928 | 20° C | 32% | 1014 hPa | 0 mm | - | 464 W/m² | - |
| 1777749626 | 20.56° C | 31% | 1014.4 hPa | 0 mm | - | 644 W/m² | - |
| 1777749322 | 20.56° C | 31% | 1014.4 hPa | 0 mm | - | 644 W/m² | - |
| 1777749020 | 20° C | 32% | 1014.4 hPa | 0 mm | - | 613 W/m² | - |
| 1777748717 | 19.44° C | 33% | 1014.4 hPa | 0 mm | - | 635 W/m² | - |
| 1777748415 | 18.89° C | 33% | 1014.7 hPa | 0 mm | - | 645 W/m² | - |
| 1777748109 | 18.89° C | 33% | 1014.4 hPa | 0 mm | - | 641 W/m² | - |
| 1777747807 | 19.44° C | 32% | 1014.4 hPa | 0 mm | - | 546 W/m² | - |
| 1777747502 | 19.44° C | 32% | 1014.7 hPa | 0 mm | - | 540 W/m² | - |
| 1777747198 | 19.44° C | 34% | 1014.7 hPa | 0 mm | - | 578 W/m² | - |
* Rain latest hour (hover to see other rain measurements)
** Current wind speed in m/s (hover to see current wind gust speed)